Location: Bridalveil Moraine
(37.7171°N, 119.6568°W)
Time: 04:21:54
(UTC+00:00)

BlueWalker 3 - Visible Passes

Search period start: 18 January 2026 00:00
Search period end: 28 January 2026 00:00
Orbit: 451 x 463 km, 53.2° (Epoch: 17 January)

Date Brightness Start Highest point End Pass type
(mag) Time Alt. Az. Time Alt. Az. Time Alt. Az.
18 Jan 4.3 03:27:48 10° SW 03:28:48 18° SW 03:28:48 18° SW visible
19 Jan 2.3 02:52:34 10° SSW 02:55:25 47° S 02:55:25 47° S visible
20 Jan 2.3 02:17:23 10° SSW 02:20:43 39° SE 02:21:58 28° E visible
20 Jan 5.1 03:55:21 10° W 03:55:44 12° W 03:55:44 12° W visible
21 Jan 2.9 01:42:19 10° S 01:45:25 28° SE 01:48:25 11° ENE visible
21 Jan 3.6 03:19:41 10° W 03:22:11 27° NW 03:22:11 27° NW visible
22 Jan 2.9 02:44:04 10° WSW 02:47:25 37° NW 02:48:32 29° N visible
23 Jan 2.4 02:08:31 10° WSW 02:11:59 49° NW 02:14:49 14° NE visible
24 Jan 4.3 03:12:52 10° NW 03:14:36 13° NNW 03:14:46 13° NNW visible
25 Jan 4.2 02:36:53 10° WNW 02:39:04 15° NNW 02:40:54 11° N visible
26 Jan 4.0 02:00:57 10° WNW 02:03:30 18° NNW 02:06:03 10° NNE visible
